Date,Total,Android,iOS
2013-02-22,3,3,0
2013-02-25,19,19,0
2013-02-26,8,8,0
2013-02-27,5,5,0
2013-02-28,1,1,0
2013-03-02,6,6,0
2013-03-03,1,1,0
2013-03-04,1,1,0
2013-03-05,1,1,0
2013-03-06,1,1,0
2013-03-07,1,1,0
2013-03-08,4,4,0
2013-03-09,6,6,0
2013-03-10,2,2,0
2013-03-11,8,8,0
2013-03-12,6,6,0
2013-03-13,6,6,0
2013-03-14,7,7,0
2013-03-15,7,7,0
2013-03-17,3,3,0
2013-03-18,2,2,0
2013-03-19,11,11,0
2013-03-20,1,1,0
2013-03-21,2,2,0
2013-04-01,2,2,0
2013-04-03,5,5,0
2013-04-04,2,2,0
2013-04-05,4,4,0
2013-04-06,1,1,0
2013-04-08,5,5,0
2013-04-09,1,1,0
2013-04-10,2,2,0
2013-04-11,1,1,0
2013-04-12,2,2,0
2013-04-16,1,1,0
2013-04-19,9,9,0
2013-04-21,2,2,0
2013-04-22,23,23,0
2013-04-23,1,1,0
2013-04-24,2,2,0
2013-04-25,4,4,0
2013-04-26,3,3,0
2013-04-27,5,5,0
2013-04-28,1,1,0
2013-04-29,17,17,0
2013-04-30,69,69,0
2013-05-01,74,74,0
2013-05-02,33,33,0
2013-05-03,11,11,0
2013-05-04,27,27,0
2013-05-05,23,23,0
2013-05-06,13,13,0
2013-05-07,21,21,0
2013-05-08,8,8,0
2013-05-09,9,9,0
2013-05-10,12,12,0
2013-05-11,10,10,0
2013-05-12,16,16,0
2013-05-13,8,8,0
2013-05-14,9,9,0
2013-05-15,8,7,1
2013-05-16,7,7,0
2013-05-17,5,5,0
2013-05-18,6,6,0
2013-05-19,4,4,0
2013-05-20,3,3,0
2013-05-21,9,9,0
2013-05-22,3,3,0
2013-05-23,4,4,0
2013-05-24,2,2,0
2013-05-25,5,5,0
2013-05-26,8,8,0
2013-05-27,6,6,0
2013-05-28,2,2,0
2013-05-29,5,5,0
2013-05-30,2,2,0
2013-05-31,14,14,0
2013-06-01,5,5,0
2013-06-02,4,3,1
2013-06-03,6,6,0
2013-06-04,1,1,0
2013-06-05,2,2,0
2013-06-06,10,10,0
2013-06-07,6,6,0
2013-06-08,9,9,0
2013-06-09,5,5,0
2013-06-10,3,3,0
2013-06-11,3,3,0
2013-06-12,9,8,1
2013-06-13,14,14,0
2013-06-14,9,9,0
2013-06-15,8,8,0
2013-06-16,1,1,0
2013-06-17,5,5,0
2013-06-18,7,7,0
